New Richmond, WI

6:24 AM CDT on May 29, 2017 (GMT -0500)
New Richmond Municipal

Weather History for KRNH - March, 2013

Change the Weather History Date:

Monday, March 25, 2013

  Actual Average (KSTP) Record (KSTP)
Temperature  
Mean Temperature 24 °F -  
Max Temperature 35 °F 43 °F 73 °F (2007)
Min Temperature 14 °F 27 °F 9 °F (2001)
Degree Days  
Heating Degree Days 40    
Moisture  
Dew Point 17 °F    
Average Humidity 71    
Maximum Humidity 93    
Minimum Humidity 48    
Precipitation  
Precipitation 0.00 in - - ()
Sea Level Pressure  
Sea Level Pressure 30.09 in    
Wind  
Wind Speed 8 mph (NNW)    
Max Wind Speed 17 mph    
Max Gust Speed 22 mph    
Visibility 10 miles    
Events      
Averages and records for this station are not official NWS values.
T = Trace of Precipitation, MM = Missing Value Source: NWS Daily Summary

Daily Weather History Graph

Daily Weather History Graph

Search for Another Location

Airport or City:

Trip Planner

Search our weather history database for the weather conditions in past years. The results will help you decide how hot, cold, wet, or windy it might be!

Date:

Astronomy

Mar. 25, 2013 Rise Set
Actual Time 7:03 AM CDT 7:29 PM CDT
Civil Twilight 6:33 AM CDT 7:58 PM CDT
Nautical Twilight 5:59 AM CDT 8:33 PM CDT
Astronomical Twilight 5:23 AM CDT 9:09 PM CDT
Moon 5:59 PM CDT (3/25) 5:50 AM CDT (3/25)
Length of Visible Light 13h 25m
Length of Day
12h 26m
Waxing Gibbous, 96% of the Moon is Illuminated
Mar 25
Waxing Gibbous
Mar 27
Full
Apr 2
Last Quarter
Apr 10
New
Apr 18
First Quarter

Hourly Weather History & Observations

Time (CDT) Temp. Windchill Dew Point Humidity Pressure Visibility Wind Dir Wind Speed Gust Speed Precip Events Conditions
12:15 AM 24.8 °F 16.9 °F 17.6 °F 74% 30.02 in 10.0 mi North 6.9 mph - N/A   Clear
12:35 AM 24.8 °F 14.0 °F 17.6 °F 74% 30.02 in 10.0 mi North 11.5 mph - N/A   Clear
12:55 AM 24.8 °F 15.3 °F 17.6 °F 74% 30.02 in 10.0 mi North 9.2 mph - N/A   Clear
1:15 AM 23.0 °F 13.9 °F 17.6 °F 80% 30.02 in 10.0 mi North 8.1 mph - N/A   Clear
1:35 AM 21.2 °F 11.7 °F 17.6 °F 86% 30.02 in 10.0 mi North 8.1 mph - N/A   Clear
1:55 AM 21.2 °F 11.7 °F 17.6 °F 86% 30.02 in 10.0 mi North 8.1 mph - N/A   Clear
2:15 AM 21.2 °F 11.7 °F 15.8 °F 80% 30.02 in 10.0 mi North 8.1 mph - N/A   Clear
2:35 AM 21.2 °F 12.6 °F 17.6 °F 86% 30.02 in 10.0 mi North 6.9 mph - N/A   Clear
2:55 AM 19.4 °F 9.5 °F 15.8 °F 86% 30.02 in 10.0 mi North 8.1 mph - N/A   Clear
3:15 AM 19.4 °F 9.5 °F 15.8 °F 86% 30.02 in 10.0 mi NNW 8.1 mph - N/A   Clear
3:35 AM 19.4 °F 10.4 °F 15.8 °F 86% 30.02 in 10.0 mi NNW 6.9 mph - N/A   Clear
3:55 AM 17.6 °F 7.3 °F 14.0 °F 86% 30.02 in 10.0 mi NNW 8.1 mph - N/A   Clear
4:15 AM 17.6 °F 6.4 °F 14.0 °F 86% 30.02 in 10.0 mi NNW 9.2 mph - N/A   Clear
4:35 AM 17.6 °F 6.4 °F 14.0 °F 86% 30.02 in 10.0 mi NNW 9.2 mph - N/A   Clear
4:55 AM 17.6 °F 7.3 °F 14.0 °F 86% 30.02 in 10.0 mi NNW 8.1 mph - N/A   Clear
5:15 AM 17.6 °F 8.2 °F 14.0 °F 86% 30.02 in 10.0 mi North 6.9 mph - N/A   Clear
5:35 AM 17.6 °F 7.3 °F 14.0 °F 86% 30.03 in 10.0 mi North 8.1 mph - N/A   Clear
5:55 AM 15.8 °F 5.1 °F 12.2 °F 86% 30.03 in 10.0 mi NNW 8.1 mph - N/A   Clear
6:15 AM 17.6 °F 7.3 °F 12.2 °F 79% 30.04 in 10.0 mi NNW 8.1 mph - N/A   Clear
6:35 AM 17.6 °F 7.3 °F 12.2 °F 79% 30.04 in 10.0 mi NNW 8.1 mph - N/A   Clear
6:55 AM 15.8 °F 6.1 °F 12.2 °F 86% 30.05 in 10.0 mi NNW 6.9 mph - N/A   Clear
7:15 AM 15.8 °F 6.1 °F 12.2 °F 86% 30.06 in 10.0 mi NNW 6.9 mph - N/A   Clear
7:35 AM 14.0 °F 2.9 °F 12.2 °F 93% 30.06 in 10.0 mi NNW 8.1 mph - N/A   Clear
7:55 AM 15.8 °F 5.1 °F 12.2 °F 86% 30.07 in 10.0 mi NNW 8.1 mph - N/A   Clear
8:15 AM 17.6 °F 7.3 °F 12.2 °F 79% 30.08 in 10.0 mi NNW 8.1 mph - N/A   Clear
8:35 AM 17.6 °F 8.2 °F 12.2 °F 79% 30.08 in 10.0 mi NNW 6.9 mph - N/A   Clear
8:55 AM 19.4 °F 10.4 °F 14.0 °F 80% 30.09 in 10.0 mi NNW 6.9 mph - N/A   Clear
9:15 AM 21.2 °F 12.6 °F 14.0 °F 74% 30.09 in 10.0 mi NNW 6.9 mph - N/A   Clear
9:35 AM 21.2 °F 13.6 °F 14.0 °F 74% 30.09 in 10.0 mi NNW 5.8 mph - N/A   Clear
9:55 AM 23.0 °F 14.7 °F 15.8 °F 74% 30.10 in 10.0 mi NNW 6.9 mph - N/A   Clear
10:15 AM 24.8 °F 17.9 °F 17.6 °F 74% 30.11 in 10.0 mi North 5.8 mph - N/A   Clear
10:35 AM 26.6 °F 20.0 °F 17.6 °F 69% 30.11 in 10.0 mi North 5.8 mph - N/A   Clear
10:55 AM 28.4 °F 22.2 °F 17.6 °F 64% 30.11 in 10.0 mi North 5.8 mph - N/A   Clear
11:15 AM 30.2 °F 24.3 °F 19.4 °F 64% 30.11 in 10.0 mi North 5.8 mph - N/A   Clear
11:35 AM 30.2 °F 24.3 °F 19.4 °F 64% 30.11 in 10.0 mi NNW 5.8 mph - N/A   Mostly Cloudy
11:55 AM 32.0 °F - 21.2 °F 64% 30.11 in 10.0 mi Calm Calm - N/A   Mostly Cloudy
12:15 PM 32.0 °F 22.5 °F 21.2 °F 64% 30.11 in 10.0 mi NNW 12.7 mph - N/A   Scattered Clouds
12:35 PM 32.0 °F 24.2 °F 21.2 °F 64% 30.11 in 10.0 mi NNW 9.2 mph - N/A   Scattered Clouds
12:55 PM 32.0 °F 23.6 °F 21.2 °F 64% 30.11 in 10.0 mi NNW 10.4 mph - N/A   Mostly Cloudy
1:15 PM 32.0 °F 21.2 °F 19.4 °F 60% 30.11 in 10.0 mi North 16.1 mph 21.9 mph N/A   Scattered Clouds
1:35 PM 32.0 °F 23.6 °F 21.2 °F 64% 30.10 in 10.0 mi NW 10.4 mph - N/A   Scattered Clouds
1:55 PM 33.8 °F 24.3 °F 19.4 °F 56% 30.10 in 10.0 mi WNW 13.8 mph - N/A   Mostly Cloudy
2:15 PM 33.8 °F 24.8 °F 19.4 °F 56% 30.10 in 10.0 mi NNW 12.7 mph - N/A   Scattered Clouds
2:35 PM 33.8 °F 23.9 °F 19.4 °F 56% 30.10 in - NNW 15.0 mph 21.9 mph N/A   Clear
2:55 PM 33.8 °F 24.3 °F 19.4 °F 56% 30.09 in 10.0 mi North 13.8 mph 18.4 mph N/A   Clear
3:15 PM 33.8 °F 23.9 °F 19.4 °F 56% 30.09 in 10.0 mi NNW 15.0 mph 19.6 mph N/A   Clear
3:35 PM 35.6 °F 25.5 °F 19.4 °F 52% 30.09 in 10.0 mi NNW 17.3 mph 20.7 mph N/A   Clear
3:55 PM 35.6 °F 26.6 °F 19.4 °F 52% 30.10 in 10.0 mi North 13.8 mph - N/A   Clear
4:15 PM 35.6 °F 26.6 °F 17.6 °F 48% 30.10 in 10.0 mi North 13.8 mph - N/A   Clear
4:35 PM 33.8 °F 25.8 °F 19.4 °F 56% 30.10 in 10.0 mi North 10.4 mph 17.3 mph N/A   Clear
4:55 PM 35.6 °F 27.5 °F 19.4 °F 52% 30.11 in 10.0 mi NNW 11.5 mph - N/A   Clear
5:15 PM 33.8 °F 25.8 °F 19.4 °F 56% 30.11 in 10.0 mi North 10.4 mph - N/A   Clear
5:35 PM 33.8 °F 25.3 °F 19.4 °F 56% 30.12 in 10.0 mi North 11.5 mph 16.1 mph N/A   Scattered Clouds
5:55 PM 33.8 °F 27.7 °F 21.2 °F 60% 30.12 in 10.0 mi North 6.9 mph - N/A   Clear
6:15 PM 33.8 °F 27.0 °F 21.2 °F 60% 30.13 in 10.0 mi NNE 8.1 mph - N/A   Scattered Clouds
6:35 PM 32.0 °F 24.2 °F 19.4 °F 60% 30.14 in 10.0 mi NNE 9.2 mph - N/A   Scattered Clouds
6:55 PM 32.0 °F 23.0 °F 19.4 °F 60% 30.15 in 10.0 mi NNE 11.5 mph - N/A   Mostly Cloudy
7:15 PM 32.0 °F 23.6 °F 19.4 °F 60% 30.16 in 10.0 mi NNE 10.4 mph - N/A   Overcast
7:35 PM 30.2 °F 23.4 °F 19.4 °F 64% 30.16 in 10.0 mi North 6.9 mph - N/A   Scattered Clouds
7:55 PM 28.4 °F 24.6 °F 19.4 °F 69% 30.17 in 10.0 mi NE 3.5 mph - N/A   Clear
8:15 PM 28.4 °F 23.3 °F 17.6 °F 64% 30.17 in 10.0 mi North 4.6 mph - N/A   Clear
8:35 PM 28.4 °F 24.6 °F 17.6 °F 64% 30.17 in 10.0 mi NNW 3.5 mph - N/A   Clear
8:55 PM 26.6 °F - 17.6 °F 69% 30.18 in 10.0 mi Calm Calm - N/A   Scattered Clouds
9:15 PM 26.6 °F 22.6 °F 17.6 °F 69% 30.18 in 10.0 mi WNW 3.5 mph - N/A   Mostly Cloudy
9:35 PM 23.0 °F - 17.6 °F 80% 30.18 in 10.0 mi Calm Calm - N/A   Overcast
9:55 PM 26.6 °F - 17.6 °F 69% 30.18 in 10.0 mi Calm Calm - N/A   Overcast
10:15 PM 26.6 °F 22.6 °F 17.6 °F 69% 30.18 in 10.0 mi West 3.5 mph - N/A   Overcast
10:35 PM 23.0 °F - 17.6 °F 80% 30.18 in 10.0 mi Calm Calm - N/A   Overcast
10:55 PM 24.8 °F - 17.6 °F 74% 30.18 in 10.0 mi Calm Calm - N/A   Overcast
11:15 PM 26.6 °F - 19.4 °F 74% 30.18 in 10.0 mi Calm Calm - N/A   Overcast
11:35 PM 26.6 °F - 19.4 °F 74% 30.18 in 10.0 mi Calm Calm - N/A   Overcast
11:55 PM 26.6 °F - 19.4 °F 74% 30.19 in 10.0 mi Calm Calm - N/A   Overcast